• Em Portugal
  • Lista de países
  • Para 7 dias
  • Temperatura da água
  • Mapas de satélite
  • Mapa do tempo
  • Widgets de tempo
  • user-avatar
    Iniciar Sessão

    Previsão horária em Jalalabad

    Hoje, 22 Novembro, Quarta-feira

    Tempo Temperatura Precipitação Vento Pressão Humidade
    00:00 +12°C° 0 mm 1 m/s 709 mmHg 15%
    01:00 +12°C° 0 mm 1 m/s 709 mmHg 15%
    02:00 +12°C° 0 mm 1 m/s 709 mmHg 14%
    03:00 +11°C° 0 mm 1 m/s 709 mmHg 15%
    04:00 +11°C° 0 mm 1 m/s 709 mmHg 15%
    05:00 +10°C° 0 mm 2 m/s 709 mmHg 15%
    06:00 +12°C° 0 mm 2 m/s 709 mmHg 15%
    07:00 +12°C° 0 mm 2 m/s 710 mmHg 15%
    08:00 +13°C° 0 mm 2 m/s 710 mmHg 15%
    09:00 +15°C° 0 mm 1 m/s 710 mmHg 13%
    10:00 +18°C° 0 mm 1 m/s 710 mmHg 11%
    11:00 +21°C° 0 mm 1 m/s 710 mmHg 9%
    12:00 +21°C° 0 mm 1 m/s 710 mmHg 9%
    13:00 +22°C° 0 mm 1 m/s 710 mmHg 10%
    14:00 +22°C° 0 mm 1 m/s 709 mmHg 10%
    15:00 +20°C° 0 mm 1 m/s 709 mmHg 13%
    16:00 +19°C° 0 mm 1 m/s 709 mmHg 16%
    17:00 +16°C° 0 mm 1 m/s 709 mmHg 19%
    18:00 +15°C° 0 mm 1 m/s 709 mmHg 19%
    19:00 +15°C° 0 mm 1 m/s 709 mmHg 19%
    20:00 +14°C° 0 mm 1 m/s 710 mmHg 19%
    21:00 +14°C° 0 mm 1 m/s 709 mmHg 19%
    22:00 +14°C° 0 mm 1 m/s 709 mmHg 19%
    23:00 +13°C° 0 mm 1 m/s 709 mmHg 19%

    Amanhã, 23 Novembro, Quinta-feira

    Tempo Temperatura Precipitação Vento Pressão Humidade
    00:00 +13°C° 0 mm 1 m/s 709 mmHg 19%
    01:00 +13°C° 0 mm 1 m/s 709 mmHg 19%
    02:00 +13°C° 0 mm 1 m/s 709 mmHg 19%
    03:00 +13°C° 0 mm 2 m/s 708 mmHg 19%
    04:00 +13°C° 0 mm 2 m/s 708 mmHg 19%
    05:00 +13°C° 0 mm 2 m/s 708 mmHg 19%
    06:00 +13°C° 0 mm 2 m/s 708 mmHg 18%
    07:00 +14°C° 0 mm 2 m/s 708 mmHg 18%
    08:00 +15°C° 0 mm 2 m/s 709 mmHg 18%
    09:00 +16°C° 0 mm 2 m/s 709 mmHg 15%
    10:00 +19°C° 0 mm 1 m/s 709 mmHg 13%
    11:00 +21°C° 0 mm 1 m/s 709 mmHg 10%
    12:00 +21°C° 0 mm 1 m/s 709 mmHg 10%
    13:00 +21°C° 0 mm 1 m/s 709 mmHg 10%
    14:00 +22°C° 0 mm 1 m/s 709 mmHg 10%
    15:00 +20°C° 0 mm 1 m/s 709 mmHg 13%
    16:00 +19°C° 0 mm 1 m/s 708 mmHg 15%
    17:00 +18°C° 0 mm 1 m/s 708 mmHg 18%
    18:00 +16°C° 0 mm 1 m/s 709 mmHg 17%
    19:00 +15°C° 0 mm 1 m/s 709 mmHg 17%
    20:00 +14°C° 0 mm 1 m/s 709 mmHg 17%
    21:00 +14°C° 0 mm 1 m/s 709 mmHg 17%
    22:00 +14°C° 0 mm 1 m/s 709 mmHg 17%
    23:00 +14°C° 0 mm 1 m/s 710 mmHg 17%

    Depois de amanhã, 24 Novembro, Sexta-feira

    Tempo Temperatura Precipitação Vento Pressão Humidade
    00:00 +13°C° 0 mm 1 m/s 709 mmHg 17%
    01:00 +13°C° 0 mm 1 m/s 709 mmHg 17%
    02:00 +13°C° 0 mm 1 m/s 709 mmHg 17%
    03:00 +13°C° 0 mm 1 m/s 709 mmHg 17%
    04:00 +12°C° 0 mm 1 m/s 709 mmHg 17%
    05:00 +12°C° 0 mm 1 m/s 708 mmHg 18%
    06:00 +13°C° 0 mm 1 m/s 709 mmHg 18%
    07:00 +13°C° 0 mm 1 m/s 709 mmHg 19%
    08:00 +14°C° 0 mm 1 m/s 710 mmHg 19%
    09:00 +16°C° 0 mm 1 m/s 710 mmHg 17%
    10:00 +19°C° 0 mm 1 m/s 710 mmHg 15%
    11:00 +21°C° 0 mm 1 m/s 711 mmHg 13%
    12:00 +22°C° 0 mm 1 m/s 710 mmHg 13%
    13:00 +22°C° 0 mm 1 m/s 710 mmHg 13%
    14:00 +23°C° 0 mm 1 m/s 710 mmHg 13%
    15:00 +22°C° 0 mm 1 m/s 710 mmHg 16%
    16:00 +20°C° 0 mm 1 m/s 709 mmHg 19%
    17:00 +17°C° 0 mm 0 m/s 709 mmHg 22%
    18:00 +19°C° 0 mm 1 m/s 710 mmHg 22%
    19:00 +19°C° 0 mm 1 m/s 710 mmHg 22%
    20:00 +19°C° 0 mm 1 m/s 711 mmHg 21%
    21:00 +18°C° 0 mm 1 m/s 711 mmHg 22%
    22:00 +18°C° 0 mm 1 m/s 711 mmHg 23%
    23:00 +18°C° 0 mm 1 m/s 711 mmHg 24%

    25 Novembro, Sábado

    Tempo Temperatura Precipitação Vento Pressão Humidade
    00:00 +16°C° 0 mm 1 m/s 710 mmHg 24%
    01:00 +15°C° 0 mm 1 m/s 710 mmHg 25%
    02:00 +15°C° 0 mm 2 m/s 710 mmHg 26%
    03:00 +15°C° 0 mm 2 m/s 710 mmHg 27%
    04:00 +14°C° 0 mm 2 m/s 710 mmHg 28%
    05:00 +14°C° 0 mm 2 m/s 709 mmHg 29%
    06:00 +15°C° 0 mm 2 m/s 710 mmHg 29%
    07:00 +15°C° 0 mm 2 m/s 710 mmHg 29%
    08:00 +16°C° 0 mm 2 m/s 711 mmHg 29%
    09:00 +17°C° 0 mm 2 m/s 711 mmHg 26%
    10:00 +20°C° 0 mm 1 m/s 711 mmHg 23%
    11:00 +22°C° 0 mm 1 m/s 711 mmHg 21%
    12:00 +22°C° 0 mm 1 m/s 710 mmHg 21%
    13:00 +23°C° 0 mm 1 m/s 710 mmHg 21%
    14:00 +23°C° 0 mm 1 m/s 709 mmHg 20%
    15:00 +22°C° 0,2 mm 1 m/s 710 mmHg 24%
    16:00 +21°C° 0,2 mm 1 m/s 710 mmHg 27%
    17:00 +20°C° 0,2 mm 2 m/s 710 mmHg 30%
    18:00 +19°C° 0,1 mm 2 m/s 710 mmHg 33%
    19:00 +18°C° 0,1 mm 2 m/s 711 mmHg 35%
    20:00 +18°C° 0,1 mm 3 m/s 711 mmHg 38%
    21:00 +17°C° 0,1 mm 3 m/s 712 mmHg 40%
    22:00 +17°C° 0,1 mm 2 m/s 712 mmHg 42%
    23:00 +17°C° 0,1 mm 2 m/s 712 mmHg 44%

    26 Novembro, Domingo

    Tempo Temperatura Precipitação Vento Pressão Humidade
    00:00 +16°C° 0 mm 2 m/s 712 mmHg 46%
    01:00 +15°C° 0 mm 2 m/s 712 mmHg 47%
    02:00 +15°C° 0 mm 2 m/s 711 mmHg 49%
    03:00 +14°C° 0 mm 2 m/s 712 mmHg 49%
    04:00 +14°C° 0 mm 2 m/s 712 mmHg 50%
    05:00 +14°C° 0 mm 2 m/s 712 mmHg 51%
    06:00 +14°C° 0 mm 2 m/s 712 mmHg 50%
    07:00 +14°C° 0 mm 2 m/s 712 mmHg 49%
    08:00 +15°C° 0 mm 2 m/s 713 mmHg 48%
    09:00 +16°C° 0 mm 2 m/s 713 mmHg 44%
    10:00 +18°C° 0 mm 2 m/s 713 mmHg 40%
    11:00 +19°C° 0 mm 2 m/s 713 mmHg 36%
    12:00 +20°C° 0 mm 2 m/s 713 mmHg 34%
    13:00 +20°C° 0 mm 2 m/s 712 mmHg 33%
    14:00 +21°C° 0 mm 2 m/s 712 mmHg 32%
    15:00 +21°C° 0 mm 1 m/s 711 mmHg 34%
    16:00 +20°C° 0 mm 1 m/s 711 mmHg 36%
    17:00 +19°C° 0 mm 1 m/s 711 mmHg 39%
    18:00 +18°C° 0 mm 1 m/s 711 mmHg 39%
    19:00 +16°C° 0 mm 1 m/s 712 mmHg 40%
    20:00 +15°C° 0 mm 1 m/s 712 mmHg 40%
    21:00 +15°C° 0 mm 1 m/s 712 mmHg 40%
    22:00 +15°C° 0 mm 1 m/s 712 mmHg 39%
    23:00 +15°C° 0 mm 1 m/s 712 mmHg 39%

    27 Novembro, Segunda-feira

    Tempo Temperatura Precipitação Vento Pressão Humidade
    00:00 +14°C° 0 mm 1 m/s 712 mmHg 38%
    01:00 +14°C° 0 mm 2 m/s 711 mmHg 38%
    02:00 +14°C° 0 mm 2 m/s 711 mmHg 37%
    03:00 +14°C° 0 mm 2 m/s 711 mmHg 37%
    04:00 +13°C° 0 mm 2 m/s 711 mmHg 36%
    05:00 +13°C° 0 mm 2 m/s 710 mmHg 36%
    06:00 +14°C° 0 mm 2 m/s 711 mmHg 34%
    07:00 +14°C° 0 mm 2 m/s 711 mmHg 33%
    08:00 +14°C° 0 mm 2 m/s 711 mmHg 32%
    09:00 +16°C° 0 mm 1 m/s 711 mmHg 28%
    10:00 +19°C° 0 mm 1 m/s 711 mmHg 24%
    11:00 +21°C° 0 mm 1 m/s 711 mmHg 20%
    12:00 +22°C° 0 mm 1 m/s 710 mmHg 20%
    13:00 +22°C° 0 mm 1 m/s 710 mmHg 19%
    14:00 +23°C° 0 mm 1 m/s 709 mmHg 19%
    15:00 +21°C° 0 mm 1 m/s 709 mmHg 21%
    16:00 +20°C° 0 mm 1 m/s 709 mmHg 24%
    17:00 +19°C° 0 mm 1 m/s 709 mmHg 26%
    18:00 +19°C° 0 mm 1 m/s 709 mmHg 27%
    19:00 +18°C° 0 mm 1 m/s 709 mmHg 27%
    20:00 +18°C° 0 mm 1 m/s 710 mmHg 27%
    21:00 +16°C° 0 mm 1 m/s 709 mmHg 28%
    22:00 +16°C° 0 mm 1 m/s 709 mmHg 28%
    23:00 +15°C° 0 mm 1 m/s 709 mmHg 29%
    Mostrar mais